Home > Weather > Liezen > Past weeks

Flag for Austria Past Weather in Liezen, Styria, Austria — Yesterday and Last 2 Weeks

Now
54 °F

Cool.


Feels Like: 54 °F
Forecast: 56 / 67 °F
Wind: 2 mph from Southwest

Location: Aigen Im Ennstal

Current Time: May 30, 2016 at 3:24:28 AM

Latest Report: May 30, 2016 at 3:00 AM


Visibility: N/A

Pressure: 29.72 "Hg (27.46 "Hg at 661m altitude)

Humidity: 87%

Dew Point: 50 °F

Location of LiezenLocation

Past Weather in Liezen — Graph

°F

Liezen Temperature Yesterday

Maximum temperature yesterday: 76 °F (at 4:00 PM)
Minimum temperature yesterday: 55 °F (at 6:00 AM)
Average temperature yesterday: 63 °F

High & Low Weather Summary for the Past Weeks

 TemperatureHumidityPressure
High83 °F (May 22, 4:00 PM)97% (May 21, 6:00 AM)30.33 "Hg (May 21, 6:00 AM)
Low35 °F (May 21, 6:00 AM)23% (May 21, 5:00 PM)29.57 "Hg (May 29, 5:00 PM)
Average55 °F68%29.97 "Hg
* Reported May 15 3:00 AM — May 30 2:00 AM, Liezen, Weather by CustomWeather, © 2016

Note: Actual official high and low records may vary slightly from our data, if they occured in-between our weather recording intervals... More about our weather records

Advertising

Liezen Weather History for the Previous 24 Hours

Scroll right to see more
 ConditionsComfort  
Time TempWeatherWind HumidityBarometerVisibility
2:00 AM
Mon, May 30
54 °FOvercast.N/A86%29.72 "Hg12 mi
1:00 AM53 °FCool.2 mph87%29.74 "HgN/A
12:00 AM55 °FCool.1 mph83%29.73 "HgN/A
11:00 PM
Sun, May 29
57 °FPassing clouds.N/A80%29.71 "Hg16 mi
10:00 PM59 °FCool.1 mph80%29.68 "HgN/A
9:00 PM61 °FCool.1 mph71%29.67 "HgN/A
8:00 PM66 °FOvercast.2 mph60%29.67 "Hg19 mi
7:00 PM69 °FMild.7 mph52%29.63 "HgN/A
6:00 PM71 °FMild.5 mph67%29.59 "HgN/A
5:00 PM74 °FThunderstorms. Overcast.N/A59%29.57 "Hg16 mi
4:00 PM76 °FMild.2 mph57%29.57 "HgN/A
3:00 PM75 °FMild.1 mph61%29.60 "HgN/A
2:00 PM72 °FOvercast.N/A64%29.62 "Hg25 mi
1:00 PM70 °FMild.2 mph69%29.65 "HgN/A
12:00 PM67 °FMild.1 mph68%29.69 "HgN/A
11:00 AM63 °FScattered clouds.N/A77%29.72 "Hg40 mi
10:00 AM62 °FCool.1 mph77%29.76 "HgN/A
9:00 AM59 °FCool.1 mph84%29.79 "HgN/A
8:00 AM56 °FLow clouds.N/A88%29.80 "Hg12 mi
7:00 AM56 °FLow clouds.N/A88%29.81 "Hg9 mi
6:00 AM55 °FCool.1 mph88%29.83 "HgN/A
5:00 AM55 °FLow clouds.1 mph89%29.83 "Hg9 mi
4:00 AM56 °FCool.1 mph92%29.85 "HgN/A
3:00 AM56 °FCool.1 mph90%29.86 "HgN/A
Weather by CustomWeather, © 2016

See weather overviewHow to use our weather pages